Content
SEND FEEDBACK

Daily
Averages
Monthly
Summary
United States of America

ASATDAS, GUAM


Home > North America > United States > Guam
Elevation: 186 meters     Latitude: 13 35N     Longitude: 144 56E

WEATHER
 
SELECT A DAY
Number of Records: 213,899;   Date Range: 1/1/95 - 10/23/14
 
SHARE

PRINT THIS DATA

[ ← Previous Day ]
WEATHER ALMANAC - 13 JULY, 2014
[ Next Day → ]
[ °F ]   °C
Weather ElementAverageHighLow
Temperature22.5 °C30.6 °C (10:54 am) (12:24 pm)
Dewpoint20.1 °C27 °C (1:49 pm) (7:00 pm)
Humidity85.8 %100 % (6:39 am)69 % (9:54 am)
Barometer1009.5 hPa1011.5 hPa (12:54 am)1007.5 hPa (3:54 am)
Wind Speed6.8 km/h13 km/h (1:54 am)
Weather ElementAverage
Visibility15.9 km
Wind DirectionE (84.6 °)

Weather ElementTotal
Precipitation1.02 mm
Heating Degree Days11.9 (Base 18.3)
Averaged from 56 records on 13 July, 2014
WEATHER CONDITIONS BREAKOUT
WIND DIRECTION BREAKOUT
WEATHER BY HOUR - 13 JULY, 2014
[ °F ]   °C
Local TimeTemperatureDewpointHumidityBarometerVisibilityWind DirectionWind SpeedGust SpeedPrecipitationEventsConditions
12:54 AM26.1 °C23.9 °C88 %1009.1 hPa16.1 kmCalmClear
12:54 AM26.1 °C23.9 °C88 %1009.1 hPa16.1 kmCalmClear
1:54 AM23.8 °C23.8 °C100 %1008.5 hPa16.1 kmCalmPartly Cloudy
1:54 AM23.8 °C23.8 °C100 %1008.5 hPa16.1 kmCalmPartly Cloudy
2:19 AM-17.8 °C-17.8 °C1009.1 hPa16.1 kmCalmPartly Cloudy
2:19 AM-17.8 °C-17.8 °C1009.1 hPa16.1 kmCalmPartly Cloudy
2:54 AM23.7 °C23.7 °C100 %1008.1 hPa16.1 kmCalmPartly Cloudy
2:54 AM23.7 °C23.7 °C100 %1008.1 hPa16.1 kmCalmPartly Cloudy
3:54 AM-17.8 °C-17.8 °C1009.1 hPa16.1 kmESE (110°)7.4 km/hClear
3:54 AM-17.8 °C-17.8 °C1009.1 hPa16.1 kmESE (110°)7.4 km/hClear
4:54 AM23.7 °C23.7 °C100 %1008.5 hPa16.1 kmSE (130°)5.6 km/hClear
4:54 AM23.7 °C23.7 °C100 %1008.5 hPa16.1 kmSE (130°)5.6 km/hClear
5:54 AM24 °C23.8 °C99 %1009.5 hPa16.1 kmCalmClear
5:54 AM24 °C23.8 °C99 %1009.5 hPa16.1 kmCalmClear
6:54 AM24 °C23.9 °C99 %1009.5 hPa16.1 kmCalmClear
6:54 AM24 °C23.9 °C99 %1009.5 hPa16.1 kmCalmClear
7:54 AM24.4 °C24.4 °C100 %1010.2 hPa16.1 kmCalmClear
7:54 AM24.4 °C24.4 °C100 %1010.2 hPa16.1 kmCalmClear
8:54 AM28.9 °C25 °C79 %1010.5 hPa16.1 kmSE (140°)7.4 km/hScattered Clouds
8:54 AM28.9 °C25 °C79 %1010.5 hPa16.1 kmSE (140°)7.4 km/hScattered Clouds
9:22 AM28 °C24 °C79 %1011.2 hPa16.1 kmESE (110°)7.4 km/hMostly Cloudy
9:22 AM28 °C24 °C79 %1011.2 hPa16.1 kmESE (110°)7.4 km/hMostly Cloudy
9:54 AM27.8 °C25.6 °C88 %1010.5 hPa9.7 kmSouth (170°)13 km/h0.51 mmRainLight Rain
9:54 AM27.8 °C25.6 °C88 %1010.5 hPa9.7 kmSouth (170°)13 km/h0.51 mmRainLight Rain
10:05 AM28 °C27 °C94 %1011.5 hPa16.1 kmSouth (180°)11.1 km/h0 mmMostly Cloudy
10:05 AM28 °C27 °C94 %1011.5 hPa16.1 kmSouth (180°)11.1 km/h0 mmMostly Cloudy
10:19 AM-17.8 °C-17.8 °C1011.2 hPa16.1 kmSouth (180°)9.3 km/h0 mmMostly Cloudy
10:19 AM-17.8 °C-17.8 °C1011.2 hPa16.1 kmSouth (180°)9.3 km/h0 mmMostly Cloudy
10:54 AM28.9 °C25 °C79 %1010.2 hPa16.1 kmVariable9.3 km/h0 mmScattered Clouds
10:54 AM28.9 °C25 °C79 %1010.2 hPa16.1 kmVariable9.3 km/h0 mmScattered Clouds
11:54 AM29.4 °C24.4 °C74 %1009.5 hPa16.1 kmSSE (150°)9.3 km/hScattered Clouds
11:54 AM29.4 °C24.4 °C74 %1009.5 hPa16.1 kmSSE (150°)9.3 km/hScattered Clouds
12:54 PM30 °C24.4 °C72 %1008.8 hPa16.1 kmSSE (150°)9.3 km/hPartly Cloudy
12:54 PM30 °C24.4 °C72 %1008.8 hPa16.1 kmSSE (150°)9.3 km/hPartly Cloudy
1:54 PM30.6 °C24.4 °C69 %1008.5 hPa16.1 kmESE (110°)11.1 km/hMostly Cloudy
1:54 PM30.6 °C24.4 °C69 %1008.5 hPa16.1 kmESE (110°)11.1 km/hMostly Cloudy
2:54 PM30 °C24.4 °C72 %1008.5 hPa16.1 kmESE (120°)11.1 km/hMostly Cloudy
2:54 PM30 °C24.4 °C72 %1008.5 hPa16.1 kmESE (120°)11.1 km/hMostly Cloudy
3:54 PM29.4 °C25 °C77 %1008.5 hPa16.1 kmESE (110°)9.3 km/hScattered Clouds
3:54 PM29.4 °C25 °C77 %1008.5 hPa16.1 kmESE (110°)9.3 km/hScattered Clouds
4:54 PM28.9 °C24.4 °C76 %1007.5 hPa16.1 kmEast (90°)11.1 km/hScattered Clouds
4:54 PM28.9 °C24.4 °C76 %1007.5 hPa16.1 kmEast (90°)11.1 km/hScattered Clouds
5:54 PM28.3 °C25 °C82 %1008.1 hPa16.1 kmEast (80°)11.1 km/hScattered Clouds
5:54 PM28.3 °C25 °C82 %1008.1 hPa16.1 kmEast (80°)11.1 km/hScattered Clouds
6:54 PM28.3 °C25 °C82 %1008.8 hPa16.1 kmEast (90°)7.4 km/hPartly Cloudy
6:54 PM28.3 °C25 °C82 %1008.8 hPa16.1 kmEast (90°)7.4 km/hPartly Cloudy
7:54 PM27.8 °C25 °C85 %1009.5 hPa16.1 kmEast (90°)9.3 km/hPartly Cloudy
7:54 PM27.8 °C25 °C85 %1009.5 hPa16.1 kmEast (90°)9.3 km/hPartly Cloudy
8:54 PM27.8 °C25 °C85 %1009.8 hPa16.1 kmEast (90°)7.4 km/hPartly Cloudy
8:54 PM27.8 °C25 °C85 %1009.8 hPa16.1 kmEast (90°)7.4 km/hPartly Cloudy
9:54 PM27 °C25 °C89 %1010.2 hPa16.1 kmEast (90°)7.4 km/hPartly Cloudy
9:54 PM27 °C25 °C89 %1010.2 hPa16.1 kmEast (90°)7.4 km/hPartly Cloudy
10:54 PM26.7 °C25.2 °C91 %1010.5 hPa16.1 kmEast (90°)5.6 km/hScattered Clouds
10:54 PM26.7 °C25.2 °C91 %1010.5 hPa16.1 kmEast (90°)5.6 km/hScattered Clouds
11:54 PM27.8 °C25 °C85 %1010.2 hPa16.1 kmEast (90°)7.4 km/hPartly Cloudy
11:54 PM27.8 °C25 °C85 %1010.2 hPa16.1 kmEast (90°)7.4 km/hPartly Cloudy
Hourly data recorded from PGUM, located 0 kilometers away from Asatdas, Guam







STORIES FROM OUR PARTNERS